GFSGBSN_sfc_thetae_000.txt.gz
Theta_e
325 324 323 324 323 323 322 322 323 323 324 325 325 326 326 325 326 326 326 327 327 328 329 330 331 332 320 308 306 316 331 331 320 319 317 316 313 314 310 312 312 308 310 313 313 312 310
325 325 324 324 324 324 323 323 322 322 323 324 325 325 325 325 325 325 326 327 327 327 328 329 331 330 313 303 312 315 315 315 316 317 317 318 315 315 311 313 308 311 310 310 310 308 311
326 325 325 324 324 323 323 323 322 321 321 322 324 325 325 324 324 325 326 326 326 326 327 328 331 321 311 305 312 314 314 314 316 317 316 319 318 312 315 311 312 311 304 306 306 307 306
326 326 326 325 324 323 322 322 321 321 321 322 322 324 324 323 324 324 325 326 326 326 327 329 330 317 306 312 315 312 314 313 317 319 319 322 320 316 314 312 309 304 304 299 305 306 307
327 325 325 325 325 324 322 321 321 320 321 321 322 322 322 322 323 324 324 325 325 328 329 330 318 314 305 314 309 313 314 311 315 316 321 317 318 314 314 304 301 302 296 298 302 307 306
328 327 327 325 324 323 323 322 321 320 320 321 320 321 321 321 322 323 323 322 325 325 323 322 318 306 306 304 310 311 314 313 312 314 312 311 310 306 304 301 294 297 296 299 299 304 304
329 329 328 327 327 325 323 323 321 320 320 320 320 321 320 320 321 322 318 317 311 310 311 307 308 306 307 309 311 308 312 311 312 310 304 308 302 299 302 303 303 303 300 299 303 306 302
330 330 329 329 328 327 326 324 322 321 319 319 319 321 321 321 321 321 316 313 313 313 302 311 310 309 310 310 303 306 312 306 307 302 306 304 298 305 307 307 304 302 299 298 302 305 302
326 326 326 326 327 327 326 325 324 323 321 319 318 319 320 320 320 315 313 314 320 316 304 308 309 307 307 308 303 304 308 307 305 303 303 301 305 307 305 304 302 301 298 298 298 303 302
322 322 323 323 323 323 323 325 325 325 323 321 319 317 318 318 311 314 311 318 322 319 298 301 302 306 307 308 302 310 309 309 306 302 304 304 306 303 302 300 302 296 303 302 301 297 291
319 319 319 318 320 319 320 320 321 322 323 322 321 318 317 316 312 310 316 321 321 314 292 303 302 310 308 303 305 305 313 309 302 302 304 301 301 300 300 300 303 300 304 302 301 296 294
317 317 316 316 316 317 318 318 318 319 319 318 321 319 316 315 315 319 321 319 314 299 292 300 303 300 301 303 304 306 305 309 311 303 303 302 305 304 302 305 304 304 301 301 299 295 288
315 315 315 315 315 316 317 317 316 316 317 316 317 318 314 315 315 326 322 312 298 293 304 299 299 301 300 300 300 303 301 299 297 294 295 300 301 303 305 300 303 301 296 289 288 288 287
314 314 314 314 315 315 316 316 316 316 316 315 314 316 319 317 319 325 317 302 292 300 302 305 302 301 297 301 301 301 300 297 301 300 297 295 292 300 303 300 297 297 296 290 284 286 290
313 313 313 313 314 315 315 315 316 315 314 313 313 322 319 321 321 322 309 294 297 302 304 302 301 298 298 301 301 300 299 298 301 301 295 295 295 304 303 303 302 298 293 299 292 293 289
314 315 316 315 313 314 314 314 314 315 314 312 313 315 316 323 320 314 303 297 301 306 306 305 297 301 297 301 299 299 299 303 301 304 304 300 294 302 302 303 302 299 302 292 292 283 282
315 315 316 317 317 316 316 314 314 314 313 312 314 308 318 323 318 305 297 300 304 309 309 302 300 298 298 298 299 299 299 304 306 305 305 302 298 298 298 296 295 295 294 296 295 291 284
315 316 316 317 316 316 316 315 314 315 312 310 309 299 318 319 304 304 300 302 305 306 309 306 304 302 299 299 299 299 298 303 307 307 301 304 299 293 295 301 302 300 296 297 290 288 291
315 315 315 316 316 315 316 316 316 314 312 305 301 303 317 316 296 297 301 300 303 303 305 303 301 304 304 300 296 300 301 306 307 305 302 303 297 290 293 296 299 296 298 298 297 295 290
315 314 314 314 315 315 315 316 315 315 313 308 301 293 302 307 306 300 298 298 298 305 303 304 302 304 302 300 302 298 300 305 304 306 314 308 299 295 289 294 297 293 296 298 296 291 291
313 312 312 312 314 315 315 315 315 315 314 308 300 297 300 292 296 297 296 295 294 295 301 303 298 298 298 295 297 297 301 301 304 306 305 303 294 296 298 299 300 299 297 296 294 295 291
311 311 311 311 313 314 314 315 315 314 313 306 297 296 298 294 295 292 292 290 290 293 295 295 296 298 298 294 297 294 297 297 297 300 296 299 293 297 294 298 298 296 299 299 296 296 296
311 311 311 311 313 313 313 314 314 313 311 303 305 303 297 294 292 291 291 291 292 293 294 295 294 293 295 297 299 300 301 299 297 293 290 290 290 291 289 296 296 292 297 299 299 299 297
310 311 311 311 312 313 314 314 313 313 311 306 304 304 296 289 292 291 292 293 291 292 291 294 295 292 295 299 299 299 298 297 296 296 297 290 289 288 286 292 285 296 303 302 300 301 301
310 309 310 309 311 312 313 313 313 313 313 308 307 303 297 290 292 292 292 292 294 294 293 293 295 297 301 298 291 288 288 289 291 294 295 297 293 288 286 287 293 297 300 300 297 296 303
309 309 309 309 311 311 312 313 313 313 312 309 307 308 302 292 290 294 292 294 290 290 292 293 298 299 299 294 290 282 281 285 284 289 298 298 298 291 288 285 284 295 302 303 300 291 301
309 309 309 309 310 311 312 312 313 312 312 310 306 309 302 293 296 296 291 291 295 293 290 292 293 293 297 290 285 283 282 288 282 283 284 288 288 284 284 281 289 299 303 303 290 292 301
308 308 308 308 309 310 310 311 312 312 312 309 305 308 303 296 297 299 298 294 295 294 288 292 291 292 290 285 285 284 284 286 286 288 287 286 284 283 286 282 282 298 298 292 295 298 299
308 308 308 308 309 309 309 310 311 312 311 310 302 308 308 299 297 303 303 303 301 300 295 295 292 292 293 288 288 288 284 286 284 279 289 283 290 286 288 289 295 297 299 299 299 300 298

GFSGBSN_sfc_thetae_003.txt.gz
Theta_e
324 324 323 323 323 323 324 323 323 323 323 324 326 326 326 325 325 325 326 326 327 328 328 329 330 332 318 305 303 315 333 328 324 317 314 314 308 307 303 306 306 302 305 309 308 308 306
326 325 323 323 323 322 322 322 322 322 322 323 324 325 325 325 325 325 326 327 327 327 328 328 330 331 310 298 309 315 315 312 314 315 313 314 310 309 304 304 302 305 306 306 307 305 305
325 325 325 324 323 322 322 321 321 322 321 322 323 324 324 324 324 324 325 326 327 326 326 327 330 323 309 304 308 309 312 310 314 315 313 315 314 308 306 302 307 305 300 301 302 303 302
327 326 325 324 324 323 322 321 320 320 321 322 322 323 323 323 323 323 324 325 325 325 326 328 329 314 302 309 307 309 310 310 314 314 317 315 315 311 307 306 304 299 297 292 300 303 304
328 327 327 327 325 324 323 321 321 320 320 321 321 321 322 322 322 323 323 324 323 325 327 329 316 309 301 314 306 309 309 309 312 313 314 317 314 306 305 297 293 294 288 292 297 303 303
329 329 328 328 327 326 324 323 321 320 320 320 321 321 321 321 321 322 322 322 322 323 321 319 318 301 304 301 307 308 307 312 310 310 311 307 303 298 297 293 287 290 290 293 293 299 301
327 327 327 327 327 327 326 325 323 321 320 319 319 320 321 321 321 321 316 311 307 306 308 304 306 302 304 306 308 304 309 309 309 305 298 302 295 292 295 296 297 296 295 294 296 302 298
325 324 324 323 322 323 324 324 324 324 323 322 320 319 320 321 320 319 314 308 308 307 298 308 308 308 309 306 300 303 308 302 302 297 300 297 293 299 302 301 299 297 294 293 297 302 299
320 320 320 320 320 320 319 320 320 321 321 322 322 320 318 320 318 311 307 310 314 311 299 304 307 306 305 305 301 300 305 302 299 297 298 294 299 304 301 300 298 297 294 294 294 298 298
317 317 317 317 317 317 317 317 317 319 319 318 319 320 319 317 311 310 307 314 313 311 293 298 302 304 305 306 300 306 306 304 300 297 298 297 303 301 299 297 298 293 300 299 297 293 287
316 316 316 316 316 316 316 317 317 317 317 316 317 318 319 315 303 308 312 314 311 307 284 301 301 308 305 300 303 304 308 305 299 299 298 296 297 297 297 298 299 295 300 298 297 292 289
315 315 315 315 314 314 316 316 317 317 316 316 316 316 318 310 309 310 317 313 307 293 285 297 300 299 298 300 301 305 303 305 305 300 299 297 302 300 299 301 301 301 298 296 294 291 283
314 314 314 314 314 315 316 315 316 316 316 315 315 315 315 314 310 318 316 305 291 285 300 296 297 298 297 296 297 301 298 295 292 289 289 295 298 299 302 297 299 297 291 284 283 283 282
314 315 316 316 316 316 315 316 316 316 316 315 313 315 317 313 311 314 309 296 284 296 297 302 301 298 294 297 296 297 296 292 296 293 290 288 287 296 299 298 293 293 292 284 279 281 286
316 316 317 317 316 315 316 316 316 316 315 313 313 313 312 314 314 311 301 287 290 296 302 300 300 294 293 297 296 295 293 294 297 297 290 289 290 299 299 300 299 293 290 295 287 286 283
316 316 317 316 316 315 315 315 316 316 315 312 304 308 309 316 311 306 296 293 295 302 303 302 294 297 292 295 294 294 292 297 297 301 300 294 290 297 299 299 299 295 296 288 287 280 278
316 316 316 316 316 316 316 315 315 316 314 312 307 300 312 316 309 297 289 293 300 305 305 300 296 295 295 294 295 293 294 299 302 302 301 298 292 293 295 293 293 292 292 292 290 286 280
316 315 314 315 316 316 316 315 315 316 313 305 300 293 312 312 297 295 291 297 302 300 303 302 301 299 297 297 295 295 295 298 304 303 298 300 295 290 293 297 299 297 294 295 288 283 287
314 314 314 314 315 315 315 315 315 314 312 301 295 294 306 308 289 289 295 298 300 300 300 301 300 303 302 298 294 296 298 304 304 303 300 302 295 288 290 292 294 292 295 294 295 289 288
312 312 312 312 314 314 314 315 315 314 313 302 294 286 293 298 297 293 292 291 291 297 296 297 297 299 298 296 298 297 297 303 304 303 306 303 297 293 288 291 294 290 293 295 293 288 290
311 311 312 312 314 314 314 315 315 314 313 302 294 289 293 287 289 289 287 288 287 287 293 293 292 293 290 289 293 293 296 297 300 303 297 295 291 293 292 292 294 295 295 294 292 293 289
311 311 311 311 313 314 314 314 314 314 312 300 291 290 291 289 289 287 288 285 288 290 289 288 288 290 290 286 288 286 291 292 293 295 293 295 286 287 284 290 290 288 293 294 295 295 294
311 310 310 310 311 312 313 313 314 313 309 296 298 299 296 292 287 285 286 288 290 291 291 293 291 289 288 290 292 293 293 294 295 292 290 290 288 284 280 288 286 282 290 295 297 297 296
310 310 310 310 310 312 313 313 313 313 310 301 298 296 290 286 288 288 290 292 291 291 288 292 292 289 292 298 296 294 292 293 294 294 295 289 286 287 281 284 277 288 300 300 298 300 300
310 310 310 310 311 312 312 312 312 313 312 302 301 299 294 287 288 289 290 290 291 292 291 291 293 294 294 293 287 284 284 285 287 290 290 291 288 285 282 282 286 290 296 294 293 292 299
309 309 310 310 310 311 311 312 312 312 312 303 300 301 298 291 288 291 290 290 287 287 288 291 295 296 293 289 285 273 277 281 280 285 291 291 290 286 284 280 277 288 295 300 297 289 297
309 309 309 309 309 310 310 310 311 311 312 306 300 302 295 290 293 293 289 290 292 291 289 291 290 290 291 285 281 278 278 285 278 279 280 281 282 281 282 281 284 292 295 298 286 287 295
308 309 309 308 309 310 309 309 310 310 311 304 301 303 297 292 293 296 296 292 292 292 288 290 289 288 286 282 281 279 278 283 283 284 282 281 280 279 280 279 277 297 297 291 294 295 296
308 308 308 308 308 308 310 310 309 309 310 308 299 303 304 297 294 299 299 300 299 298 294 293 291 289 292 285 284 283 279 281 282 278 287 279 285 281 283 283 291 292 293 300 300 297 296

GFSGBSN_sfc_thetae_006.txt.gz
Theta_e
325 323 323 323 322 321 322 322 322 322 323 323 324 325 326 325 325 325 326 326 327 328 328 328 329 331 315 303 303 313 337 332 320 316 313 312 306 305 301 304 304 301 303 308 308 306 305
325 324 323 323 322 321 321 321 322 322 322 323 323 324 324 324 324 324 325 326 327 327 327 326 329 330 308 297 308 312 316 311 314 313 311 311 308 308 303 302 301 303 304 305 305 305 304
328 327 325 324 323 322 321 321 321 321 322 322 323 324 323 323 323 323 324 325 325 325 325 327 329 324 307 303 306 310 311 308 311 313 311 313 312 307 304 300 305 304 299 300 301 302 301
329 329 328 326 325 323 322 321 321 320 321 322 322 322 322 322 322 322 324 324 325 325 326 328 328 313 300 309 306 307 308 307 311 312 314 314 314 310 305 304 301 298 296 290 297 301 302
328 328 328 328 328 327 325 323 321 320 320 321 322 322 321 322 321 322 323 323 324 325 327 328 315 306 301 314 302 307 306 306 309 310 311 314 312 305 304 296 292 292 286 290 294 301 301
326 325 325 325 325 325 326 325 324 323 322 321 320 320 321 321 322 322 322 321 322 320 319 319 317 301 303 300 305 306 305 309 308 308 308 305 301 297 295 292 285 288 288 290 291 297 299
322 322 322 322 321 321 322 323 323 322 322 322 322 321 320 321 321 321 313 310 305 305 306 302 304 300 302 304 306 302 307 306 307 303 296 300 293 291 294 295 294 292 291 291 294 299 297
318 318 318 318 318 319 319 318 318 319 319 319 320 320 321 319 320 319 312 307 306 306 298 306 306 306 308 303 299 300 306 300 300 295 298 295 291 297 299 298 296 294 291 290 295 299 297
317 317 317 317 317 317 317 317 317 317 317 317 318 318 319 320 318 310 305 307 312 309 296 301 306 304 304 303 299 298 303 300 297 295 296 291 296 301 299 297 296 295 293 291 293 296 296
316 316 316 316 315 315 316 316 316 316 316 316 317 318 317 319 310 306 307 313 311 308 291 297 301 303 304 304 299 305 305 302 297 295 296 295 301 299 297 296 297 292 297 297 296 292 286
315 315 315 315 315 316 316 316 316 317 317 316 317 316 316 316 300 307 311 312 309 305 282 299 300 306 302 299 300 302 305 303 296 297 295 293 296 296 296 297 297 294 299 297 295 290 287
315 316 315 316 316 316 317 317 317 317 317 316 316 316 316 310 307 308 314 311 305 292 283 296 299 297 296 298 298 303 302 304 303 298 297 296 300 298 297 300 299 299 296 294 292 288 282
317 317 317 317 316 316 317 317 317 318 317 316 315 315 313 315 307 312 313 302 290 284 297 294 296 297 295 294 295 298 296 294 291 287 286 291 294 298 300 295 298 296 290 283 281 281 283
317 317 318 317 316 316 316 317 317 318 317 315 314 315 317 314 308 311 304 294 283 293 295 301 301 298 293 295 295 295 294 291 294 292 288 286 286 294 298 297 294 292 291 284 279 280 285
317 316 317 315 315 315 316 316 316 317 316 314 312 308 310 313 313 310 297 286 289 292 300 299 299 293 291 295 294 293 292 292 295 295 288 287 288 297 298 300 298 292 288 293 286 283 281
316 315 315 315 315 315 315 316 316 316 315 312 304 307 309 315 308 304 294 291 292 301 300 300 292 296 291 293 293 292 291 295 295 298 297 291 287 295 298 297 296 295 295 286 285 280 278
315 315 315 314 314 315 316 315 315 315 314 311 302 300 310 313 305 296 289 291 297 301 301 297 294 294 294 293 294 292 293 298 302 301 301 294 290 292 294 291 291 291 291 290 288 286 283
313 313 313 313 314 315 315 314 315 315 312 305 296 293 307 309 296 292 290 295 301 299 300 300 299 299 295 294 294 293 293 296 304 302 297 300 296 289 292 297 298 297 294 294 288 285 283
312 312 313 313 315 314 314 315 315 314 312 303 293 292 301 304 287 288 292 294 296 293 292 294 295 298 296 294 290 296 297 303 304 300 296 299 293 288 290 293 293 291 293 294 293 292 288
312 312 312 312 314 314 314 315 314 314 313 300 292 287 292 292 291 287 286 287 288 293 291 292 290 293 289 287 291 289 291 297 296 299 304 300 293 292 286 288 288 287 287 292 289 287 289
311 311 311 311 312 313 314 314 315 313 312 299 292 288 290 284 285 286 286 286 285 286 290 290 288 289 287 284 285 286 288 289 293 296 298 296 287 289 289 290 290 288 287 286 286 287 283
311 310 311 311 311 312 313 314 314 313 310 296 289 288 290 287 287 285 286 283 286 288 288 287 286 289 288 284 286 284 287 288 287 292 291 292 284 288 285 288 287 284 287 289 288 287 289
310 310 310 311 311 312 312 312 313 312 306 294 295 295 292 289 285 283 284 286 288 289 290 291 289 288 287 289 290 292 292 292 290 288 287 287 285 281 278 285 285 280 285 287 289 291 291
310 310 310 310 310 311 311 311 312 312 307 299 296 297 292 283 286 286 289 289 288 289 287 291 291 288 291 294 293 292 290 290 290 289 290 286 285 283 279 281 274 286 292 292 290 291 295
309 309 309 310 310 310 310 309 310 312 311 300 299 295 289 283 286 287 288 288 289 289 288 289 292 294 292 291 286 282 282 282 285 288 288 288 288 283 280 277 283 286 290 293 291 290 294
309 309 309 309 309 310 310 310 309 310 310 300 298 299 294 289 286 290 289 288 286 285 287 289 293 294 293 288 283 274 276 279 278 282 288 287 289 283 278 270 271 283 291 297 296 283 294
308 309 309 309 309 310 309 309 309 310 310 302 298 300 298 290 292 291 287 287 290 289 287 289 290 289 290 286 281 279 277 282 276 277 278 280 281 279 280 278 282 290 293 295 281 285 295
308 308 308 308 308 308 308 308 310 310 310 302 298 301 297 291 292 294 294 291 289 289 286 289 288 287 286 283 282 278 277 280 279 282 279 280 279 278 280 277 272 294 290 284 288 294 296
307 307 307 307 308 307 308 308 309 309 310 308 296 300 301 296 292 297 297 298 296 295 291 290 288 288 290 285 284 284 280 278 279 276 283 277 282 280 281 279 287 290 291 294 294 291 294

GFSGBSN_sfc_thetae_012.txt.gz
Theta_e
325 324 323 323 321 321 321 320 320 321 322 323 323 323 323 323 323 323 323 324 325 325 326 325 326 329 311 299 300 309 336 329 313 312 309 308 302 301 297 300 301 299 301 305 307 306 303
328 328 326 323 322 321 321 320 319 320 321 323 323 323 324 323 323 323 323 324 325 325 325 325 326 327 304 293 305 311 313 308 311 309 307 308 305 305 300 298 298 300 301 302 303 303 302
326 326 326 326 326 325 323 321 320 320 321 322 323 323 323 323 323 323 323 324 324 325 324 325 326 318 302 299 304 306 309 304 307 309 307 310 309 304 301 298 301 300 297 298 298 300 301
324 324 324 323 323 323 322 321 320 320 321 322 322 322 322 322 322 322 323 323 324 324 324 325 326 306 297 306 304 306 306 304 306 308 310 310 310 306 302 302 298 294 293 290 295 299 301
320 320 320 320 320 321 321 320 320 319 320 321 321 320 321 321 321 322 323 322 323 323 324 326 308 304 297 313 299 302 303 302 304 306 307 311 307 301 300 294 291 290 286 287 291 298 297
317 317 317 318 318 319 319 319 319 319 319 319 319 319 320 321 321 320 320 320 319 319 320 318 312 294 298 297 301 302 300 305 304 304 304 302 298 294 292 291 285 286 285 287 287 292 295
316 317 317 318 317 318 318 318 318 318 318 318 318 318 318 319 320 320 312 307 300 299 301 295 296 294 298 301 303 300 303 303 303 301 292 296 291 287 290 292 292 288 287 287 289 294 293
317 317 317 317 317 317 318 318 318 318 318 317 317 317 317 318 319 318 309 304 301 302 297 303 302 303 306 303 298 297 304 296 296 291 294 292 288 293 295 294 294 292 289 289 291 294 293
317 316 317 317 317 317 317 317 317 317 318 317 317 317 317 318 318 308 303 305 309 305 293 297 303 301 302 304 299 296 301 297 294 291 292 289 291 298 295 292 291 291 289 289 289 292 292
317 317 317 317 317 317 317 316 316 316 317 316 317 317 317 317 306 301 306 311 309 304 289 294 298 300 301 302 297 302 302 298 294 291 291 291 296 295 292 292 292 287 293 293 292 288 286
317 317 316 316 316 316 316 316 316 317 317 317 316 316 316 311 299 304 308 312 306 301 281 296 297 304 300 297 297 299 302 299 292 293 293 290 292 292 292 293 294 291 296 293 292 288 286
317 316 315 316 315 315 316 317 317 317 317 316 315 315 316 310 304 307 308 307 302 289 280 293 297 296 295 295 296 300 298 300 298 294 293 294 296 295 295 297 296 296 292 291 289 286 281
315 315 315 314 314 314 315 316 317 317 316 315 315 315 312 313 305 307 306 299 288 283 294 293 295 298 293 292 293 295 294 290 289 285 283 288 291 295 296 291 293 293 288 281 280 280 282
315 314 314 314 314 315 315 316 317 316 316 315 314 316 316 314 311 309 300 293 282 290 291 298 297 296 291 295 293 294 291 289 292 288 285 283 284 290 294 291 288 288 288 282 278 277 281
314 314 314 314 314 315 316 316 316 316 315 314 313 308 308 307 309 304 296 285 285 290 295 294 294 290 290 293 293 293 290 289 293 296 287 286 284 296 299 298 294 288 285 290 285 288 283
313 313 314 313 313 314 315 316 316 316 314 312 306 304 304 304 305 300 292 289 290 296 296 295 288 291 287 290 290 289 289 296 297 299 298 293 288 295 296 298 296 291 292 285 284 279 279
313 314 313 313 312 314 314 315 316 315 313 309 301 299 305 302 304 296 287 288 294 297 292 291 291 290 291 287 288 287 289 294 297 295 298 294 291 290 294 292 291 292 290 288 288 288 282
313 313 313 312 312 313 313 313 314 314 311 302 294 291 301 301 292 288 288 290 295 291 291 290 291 291 288 288 285 287 289 292 294 292 290 294 291 284 286 292 296 294 292 291 284 282 282
312 312 312 312 312 313 313 313 314 312 309 296 290 289 296 298 285 281 284 286 291 288 288 288 287 290 288 285 281 286 287 292 292 290 287 291 284 277 279 282 288 286 290 290 287 285 280
312 312 312 312 312 313 312 313 313 312 310 295 289 281 286 288 286 282 281 281 284 289 289 289 287 289 286 284 286 283 285 290 291 291 297 294 285 282 277 280 285 282 284 285 283 278 278
311 311 312 312 311 312 312 312 312 312 308 294 289 285 286 280 282 282 282 283 282 283 288 288 285 286 284 281 282 282 285 286 289 293 291 287 280 282 283 284 284 283 282 283 281 281 278
310 311 311 311 310 310 311 311 311 311 306 294 287 284 286 283 284 280 283 279 283 286 286 284 282 286 286 281 283 281 284 285 285 287 286 286 281 283 280 283 282 280 282 283 283 283 282
310 310 310 310 310 310 311 311 311 310 303 292 291 291 286 284 282 279 280 282 286 286 286 288 286 285 284 286 288 289 291 289 288 285 284 283 280 276 275 281 280 276 281 283 284 286 285
309 309 309 310 310 309 309 310 310 310 304 295 293 291 284 280 283 283 286 287 285 285 284 287 288 284 288 293 292 290 287 287 287 287 287 282 281 281 276 277 268 279 286 286 285 286 289
309 309 309 309 309 309 308 309 309 310 307 297 295 292 286 281 284 285 285 285 285 286 285 286 288 290 290 287 282 280 279 280 281 284 284 285 280 276 272 271 277 280 285 284 282 282 290
309 309 308 308 308 308 309 308 309 310 306 297 295 295 293 284 282 287 285 285 282 281 283 286 290 291 287 285 282 271 273 275 276 280 284 284 283 279 275 272 269 279 285 288 289 278 289
308 308 308 308 308 307 307 306 307 309 308 299 295 297 294 284 287 287 284 283 287 284 284 285 286 285 286 280 279 276 273 280 275 277 276 277 276 275 275 272 275 283 286 290 276 278 289
308 308 307 307 307 307 307 307 307 308 309 302 299 299 292 288 287 290 290 286 287 285 284 284 285 283 282 280 278 275 272 278 277 278 277 274 272 272 273 273 270 287 287 282 286 290 290
308 308 307 307 307 307 307 307 307 308 309 305 299 302 302 295 292 294 296 296 293 293 288 288 284 283 286 284 282 282 277 276 277 274 281 275 280 276 279 278 285 288 288 291 291 289 289

GFSGBSN_sfc_thetae_015.txt.gz
Theta_e
328 326 324 322 321 321 320 319 319 319 320 321 322 324 324 323 323 323 324 324 325 326 326 325 326 329 313 302 303 310 333 325 315 314 312 312 308 307 303 304 306 304 305 307 310 310 308
326 325 325 325 325 324 322 320 319 319 320 320 322 323 323 323 323 323 323 324 325 325 325 325 326 327 308 297 307 314 313 309 313 313 312 313 309 309 305 303 303 303 304 305 306 307 306
324 324 324 324 323 323 322 320 319 319 320 322 323 323 322 322 323 323 323 324 324 324 324 325 326 316 304 299 308 308 310 307 310 313 311 314 313 309 307 303 304 302 300 302 303 305 305
320 321 321 321 321 322 321 320 319 319 320 321 322 321 321 322 321 322 323 323 323 324 324 324 325 309 299 307 310 308 310 308 310 313 314 316 316 311 307 307 303 299 299 296 300 302 305
318 318 318 319 319 319 319 319 319 319 319 320 320 320 320 321 321 321 321 322 322 322 323 326 312 307 297 314 302 305 308 305 308 311 312 312 311 305 304 300 297 296 292 292 295 300 301
317 318 318 318 318 319 319 319 319 318 318 318 319 318 318 319 320 321 321 319 320 320 320 318 310 298 301 300 303 304 306 308 306 308 306 305 302 299 297 297 289 290 291 291 292 297 298
317 318 318 318 318 318 318 319 319 319 319 318 318 318 318 319 319 320 312 307 301 300 304 297 298 296 300 303 304 302 305 306 307 303 296 300 295 291 294 297 295 293 291 291 295 297 295
317 317 317 317 317 317 318 318 318 318 318 318 318 318 318 318 319 318 308 304 303 305 298 304 303 303 305 306 301 300 306 300 301 296 298 295 292 295 295 295 295 294 292 292 295 297 295
318 317 316 316 317 317 317 317 317 317 318 317 317 318 318 319 318 309 307 307 310 308 296 299 303 303 303 305 300 300 303 300 298 294 295 291 293 297 296 294 293 293 291 291 291 295 296
317 316 316 316 316 316 317 317 317 317 317 317 317 317 317 317 306 303 307 313 311 307 291 295 299 301 302 304 300 303 303 302 299 294 293 294 297 296 294 293 294 289 295 294 293 291 288
316 316 315 315 315 316 316 316 316 317 317 316 316 316 316 312 301 306 309 312 308 302 283 297 298 305 301 300 300 301 303 303 295 295 296 293 295 295 294 295 296 294 296 294 294 291 291
315 316 316 315 315 315 315 316 317 317 317 316 316 315 315 311 306 307 308 308 303 290 284 295 300 298 297 297 297 300 301 303 301 297 296 295 298 298 296 298 297 299 296 294 292 291 286
316 316 315 314 314 314 315 315 316 316 317 316 316 316 314 312 306 311 306 301 289 284 295 293 295 297 296 294 295 296 295 293 290 288 287 290 292 297 298 294 296 296 291 285 284 284 285
315 315 314 313 313 314 315 316 317 317 316 315 314 316 315 306 308 308 301 293 284 291 291 297 296 295 292 295 295 295 294 291 297 292 288 286 287 293 298 297 294 293 292 286 280 282 285
315 315 314 313 313 315 316 316 316 316 315 314 313 308 304 303 307 303 296 285 287 291 294 294 294 290 291 294 294 292 291 292 296 297 291 290 288 298 299 299 296 292 290 293 287 290 285
314 314 314 313 313 314 315 316 316 316 314 312 306 304 301 302 303 300 293 289 292 294 292 295 289 292 289 290 290 289 289 297 296 296 299 294 286 295 298 299 297 295 295 287 288 281 279
314 314 314 313 313 314 314 315 315 315 313 309 302 297 302 300 303 296 288 290 295 295 291 291 292 290 291 287 288 287 288 290 292 291 295 294 291 289 292 289 289 289 286 287 289 287 281
313 314 314 313 312 313 312 313 314 313 310 300 295 289 299 300 292 288 288 291 295 290 291 291 292 289 288 287 285 288 289 289 292 292 287 292 290 282 283 290 292 290 289 286 279 278 280
313 313 313 313 312 312 313 312 313 312 307 294 290 288 294 294 281 279 283 286 290 288 288 288 287 289 289 286 281 285 287 292 291 289 286 290 284 277 278 283 287 284 286 285 285 283 277
312 312 313 312 312 312 312 312 312 312 308 294 287 282 286 288 286 282 281 283 283 290 289 289 287 289 286 284 287 283 285 289 290 290 295 293 286 282 276 279 285 281 283 285 283 277 278
312 312 312 312 311 311 312 311 311 311 307 293 287 286 287 279 283 284 283 283 282 284 288 287 286 286 285 282 283 283 285 285 289 292 290 288 281 283 283 284 284 283 282 283 281 282 278
311 311 311 311 311 310 311 311 310 310 305 293 286 284 284 284 284 281 282 281 284 285 286 283 284 286 285 282 283 281 284 285 284 287 287 288 280 283 280 283 283 280 283 283 283 283 283
310 310 310 311 310 310 311 311 310 309 302 291 290 291 284 284 282 279 281 284 285 286 286 288 287 285 284 285 288 289 289 289 288 285 284 284 282 280 275 281 280 277 281 282 282 284 284
310 310 310 310 310 309 309 310 310 309 302 295 292 289 282 280 282 283 286 287 285 285 284 287 288 285 288 292 290 289 287 287 287 286 288 283 282 281 276 278 271 281 286 285 284 286 287
309 309 309 309 309 309 308 309 309 309 306 296 294 291 285 280 283 284 285 285 285 286 286 286 288 290 291 287 283 280 280 281 282 284 284 286 282 278 274 274 279 281 284 283 282 282 288
309 309 309 309 308 308 308 309 309 309 307 296 295 294 289 283 282 287 285 286 282 282 283 286 289 290 289 285 281 270 273 277 276 280 286 284 284 280 278 272 270 280 285 289 289 278 288
309 308 308 308 308 307 307 307 308 309 307 298 295 296 290 284 286 287 284 283 286 284 284 285 286 286 287 282 279 275 275 280 275 276 278 279 279 275 276 275 278 284 287 291 277 280 289
309 308 308 308 307 307 307 307 307 308 308 302 299 300 293 285 286 289 291 287 287 286 283 284 283 283 282 280 279 278 276 279 278 280 279 277 275 275 276 273 271 287 287 281 286 290 290
309 309 308 308 308 307 307 306 307 308 308 306 298 302 302 295 290 293 293 294 293 291 287 288 284 284 285 282 282 282 278 279 279 275 282 277 281 279 280 279 286 289 288 291 292 290 291

GFSGBSN_sfc_thetae_018.txt.gz
Theta_e
326 325 326 325 324 322 320 319 319 319 319 320 321 322 323 324 323 324 324 324 325 326 326 326 327 329 318 306 307 315 329 324 318 317 315 314 310 311 305 307 309 308 308 310 312 312 312
324 324 324 324 323 323 322 321 320 320 320 321 322 323 323 323 323 323 324 324 325 326 326 326 327 327 311 302 312 317 316 313 315 315 314 315 312 313 309 307 307 308 308 308 309 310 311
321 322 322 322 322 322 322 320 319 319 320 321 322 322 322 322 322 323 323 324 324 324 324 325 326 317 307 304 315 314 314 312 314 314 313 316 316 312 311 306 309 308 304 307 307 308 308
320 320 320 320 320 320 320 319 319 319 320 321 321 321 321 321 322 322 322 323 323 324 324 324 325 313 304 312 315 312 313 310 313 315 315 317 317 313 310 311 308 303 303 300 305 306 308
318 318 318 319 319 320 319 319 319 319 319 319 320 320 320 320 321 322 322 322 322 322 323 325 314 310 303 318 307 309 312 308 311 314 315 315 315 310 309 303 301 302 296 299 301 305 305
318 318 318 318 318 319 319 319 319 319 319 320 319 319 319 319 320 321 321 319 323 323 321 319 314 304 307 304 307 308 310 311 309 311 309 309 308 304 304 301 293 296 296 297 297 302 302
318 318 317 317 318 318 318 319 319 319 319 319 319 319 319 319 320 320 317 318 311 309 310 302 303 301 304 309 309 307 309 309 310 307 301 305 300 298 300 301 300 298 296 296 300 303 301
318 317 317 317 317 318 318 318 318 318 318 318 318 318 319 319 319 317 317 311 310 311 303 307 307 307 309 311 305 305 310 303 303 299 302 301 298 301 299 299 299 298 296 296 300 301 300
317 317 317 317 317 317 317 317 317 318 318 318 318 318 318 319 318 316 315 312 317 313 304 303 306 307 307 308 303 304 306 304 300 298 299 297 299 300 298 298 297 298 296 297 297 300 302
316 317 317 316 316 317 317 317 317 317 318 318 317 317 317 317 313 314 315 318 319 313 302 300 303 305 306 307 302 307 307 304 301 298 299 299 301 298 298 298 299 296 300 299 298 297 294
317 316 316 315 316 316 316 317 317 318 318 317 317 316 316 312 313 314 313 317 317 313 292 301 302 309 307 303 303 305 307 304 299 299 299 299 298 298 297 299 300 297 301 299 298 297 297
316 316 315 314 315 315 316 317 318 318 318 318 317 315 316 316 316 314 317 316 313 299 291 299 304 302 303 303 302 305 305 306 304 299 300 300 303 300 300 300 300 301 299 300 299 297 290
316 315 314 314 314 314 315 316 317 318 318 317 317 318 318 316 313 317 317 311 299 294 300 297 298 301 300 300 301 302 300 302 299 295 295 298 298 300 302 299 302 301 298 291 290 290 290
316 315 314 314 314 314 315 316 317 316 316 315 315 315 314 308 313 315 312 304 292 294 296 300 299 299 297 299 299 299 298 297 302 300 297 294 291 297 302 299 296 298 296 290 283 286 288
315 315 315 314 313 313 314 316 316 316 315 314 313 317 309 307 312 313 307 297 295 296 296 296 297 294 295 298 296 295 297 298 296 297 294 293 292 300 299 301 300 296 293 297 291 292 287
315 315 315 314 313 314 314 315 315 315 314 312 319 314 304 306 311 311 304 294 296 296 293 296 292 296 291 293 292 292 291 296 295 294 297 295 286 293 298 298 300 293 295 285 288 279 280
314 315 314 313 313 313 314 313 313 313 311 309 316 306 304 306 312 307 298 297 298 295 295 294 293 291 293 291 291 288 290 291 293 292 295 292 290 290 292 288 287 287 287 289 289 287 280
314 314 314 313 313 313 313 313 313 313 310 309 308 297 304 307 301 299 296 295 296 292 295 294 295 293 291 289 286 287 289 291 293 293 288 291 287 282 285 290 291 290 289 287 281 279 282
313 314 314 312 313 313 312 313 312 312 308 306 299 298 303 302 291 289 290 291 292 292 292 291 290 292 292 288 284 287 289 293 293 291 288 290 286 280 283 288 291 286 287 287 286 286 279
313 313 313 313 313 312 312 312 312 311 307 304 298 293 295 297 295 291 288 287 287 294 291 292 291 292 288 286 289 286 287 290 292 291 294 293 287 284 280 282 286 283 284 286 285 280 281
312 312 312 312 312 312 312 312 311 310 307 304 298 292 292 289 290 290 290 288 287 287 291 291 289 289 287 284 285 284 288 288 290 292 292 290 283 285 286 286 285 284 284 284 283 284 280
311 311 312 312 311 311 312 312 311 309 306 301 295 294 294 292 291 289 289 287 287 288 288 286 287 288 288 284 285 283 286 287 287 289 288 290 282 284 281 284 284 282 284 285 285 285 284
311 311 311 311 311 310 311 311 310 308 307 300 300 300 295 288 289 288 288 288 288 288 289 291 289 288 287 288 291 292 293 292 291 288 287 287 284 281 277 283 283 279 284 284 285 286 285
310 310 310 310 310 309 309 310 310 309 307 304 301 299 293 287 290 289 289 289 288 288 287 290 291 288 291 295 294 293 291 290 290 289 291 286 284 282 278 281 273 284 289 288 286 286 288
309 309 309 310 309 309 308 309 309 309 306 305 304 301 295 289 290 289 288 288 289 290 289 289 291 293 295 292 287 284 286 285 286 288 289 290 287 281 278 278 282 283 286 286 284 284 290
309 308 309 309 308 308 309 308 309 309 307 306 304 305 300 293 289 291 290 290 289 289 289 289 293 295 293 290 287 278 279 281 280 283 289 289 289 283 281 275 273 283 288 291 290 281 291
309 308 308 308 307 307 307 308 308 308 306 306 303 304 300 295 294 293 290 290 292 290 289 289 290 290 292 288 284 282 281 284 279 279 281 283 284 280 280 277 281 288 289 291 279 282 291
309 309 308 308 308 307 307 307 307 308 307 307 303 306 300 295 294 294 294 292 292 291 288 290 289 289 289 284 284 284 282 284 282 284 282 281 280 279 280 277 275 290 289 282 288 293 292
310 310 309 308 308 308 307 306 307 307 308 308 303 306 306 298 296 298 298 299 298 296 293 292 290 289 291 288 287 287 282 284 283 279 287 280 284 282 283 282 290 292 291 294 295 291 293

GFSGBSN_sfc_thetae_021.txt.gz
Theta_e
324 324 325 324 324 323 322 320 320 319 320 321 322 323 323 324 324 324 324 325 325 326 327 327 327 330 322 311 310 319 326 324 319 318 315 314 311 311 307 309 310 308 310 311 312 312 312
323 323 323 323 323 322 320 319 319 320 320 322 323 323 323 324 323 324 324 324 325 326 326 326 327 327 316 305 314 318 316 314 316 316 315 316 313 314 310 309 308 310 310 309 310 310 311
321 321 321 321 322 321 320 320 319 320 320 321 322 322 322 322 323 323 324 324 325 325 325 326 327 320 310 308 316 316 315 313 315 315 313 316 317 312 313 308 312 309 305 308 309 309 309
320 320 320 320 320 320 319 319 320 320 320 320 321 321 321 322 322 323 323 323 323 324 324 325 326 317 307 315 318 314 315 312 314 316 314 318 318 314 311 312 308 305 306 301 307 308 309
320 320 319 318 318 319 319 320 319 319 320 320 320 320 320 320 321 322 322 322 323 323 323 325 317 312 306 316 310 312 314 310 312 314 316 315 315 311 310 305 303 304 299 301 303 307 305
318 318 318 318 319 319 319 320 319 320 320 320 320 320 320 319 320 321 321 321 323 322 320 318 314 307 307 306 310 310 313 312 310 311 311 310 309 306 306 303 296 298 298 299 299 304 305
318 317 317 318 318 318 319 319 319 319 319 319 319 319 319 320 320 320 319 319 315 312 313 306 305 305 307 311 312 309 311 310 310 309 303 308 301 300 302 303 302 300 298 297 301 305 303
318 318 318 318 318 318 318 318 318 319 319 319 319 319 319 319 320 319 320 313 312 315 306 310 309 309 311 312 306 308 312 306 305 302 305 303 301 303 302 302 300 300 299 299 304 306 304
317 317 317 317 317 317 317 317 318 318 319 319 319 318 318 319 318 316 317 315 320 317 308 307 309 308 308 311 305 306 308 306 304 302 302 301 304 303 300 301 300 301 300 300 299 302 304
317 317 316 317 317 317 317 317 318 319 319 318 318 317 317 317 312 319 317 320 322 317 305 302 305 307 309 309 304 309 310 306 305 301 303 303 304 300 301 300 302 298 302 301 299 298 294
317 316 316 316 316 316 316 318 318 319 319 319 317 316 316 310 316 317 316 321 322 316 295 303 305 313 310 306 306 307 310 307 302 302 301 300 301 300 299 300 302 298 302 300 300 298 298
316 316 316 315 315 315 317 318 318 319 319 318 319 317 317 318 319 318 322 321 317 302 294 301 306 304 305 306 306 308 307 309 308 302 303 302 306 302 301 302 302 303 302 302 302 300 292
316 316 315 314 314 314 316 317 317 317 318 317 317 317 320 319 316 320 322 314 302 296 302 300 301 303 302 302 303 304 303 303 300 296 297 301 300 302 305 301 304 302 297 291 291 292 292
316 316 315 314 313 314 314 316 317 316 316 315 315 316 312 312 319 318 316 306 295 298 299 303 301 300 299 301 301 299 300 299 300 299 298 296 294 299 302 299 297 298 296 290 284 287 290
316 316 315 314 313 313 314 315 316 315 315 314 312 318 312 310 316 318 310 300 299 299 298 298 299 297 298 300 296 296 299 299 297 297 293 293 294 300 299 301 299 296 292 296 291 292 288
315 315 314 314 313 314 314 314 315 314 314 312 320 313 306 310 317 315 306 298 298 297 296 297 295 296 293 294 294 293 293 296 295 296 298 295 286 294 297 297 299 297 294 286 289 281 281
315 315 315 314 314 314 314 314 313 313 312 311 318 309 305 310 315 309 302 300 298 296 297 296 294 292 294 292 291 290 291 294 295 294 296 293 289 290 296 291 290 290 288 290 290 288 282
314 315 314 313 314 313 314 314 313 312 310 310 312 301 305 309 304 304 300 296 296 293 296 296 296 294 292 291 288 289 290 293 295 295 289 292 288 283 287 293 293 291 289 288 283 282 284
314 314 314 313 313 313 313 313 312 311 309 310 303 301 306 306 296 294 295 292 294 293 293 292 292 293 292 290 286 289 290 296 295 292 290 291 287 282 287 290 292 289 291 289 288 288 281
313 313 314 313 313 312 312 312 311 311 310 308 303 299 300 301 299 295 292 290 290 295 292 293 292 293 290 289 291 288 289 292 294 292 294 293 287 284 281 285 289 285 287 288 286 282 282
312 312 313 313 312 312 312 312 311 310 311 308 303 296 296 295 293 294 294 291 289 289 293 293 291 290 288 286 288 287 290 290 292 293 292 291 285 287 288 288 287 286 285 286 284 285 281
312 312 312 312 311 312 312 312 311 310 309 305 300 299 298 294 293 293 291 290 290 289 290 288 288 290 290 287 288 286 288 289 288 291 290 291 284 286 283 286 286 283 286 286 286 286 285
311 311 311 312 311 310 311 311 310 309 309 303 303 301 300 290 292 293 292 291 290 290 291 292 291 289 289 291 293 293 294 293 292 290 289 288 287 284 279 285 284 280 285 286 286 287 286
310 310 310 311 310 310 309 311 311 309 308 305 303 302 298 292 294 293 291 291 290 290 289 291 293 290 293 297 295 295 293 292 292 291 292 288 286 285 280 283 275 286 291 290 287 288 289
310 310 309 310 310 309 309 310 310 309 308 306 306 303 298 293 295 292 291 291 292 292 291 291 293 294 297 293 289 287 288 287 289 291 291 291 287 283 279 279 283 285 288 287 285 285 290
310 309 309 309 309 309 309 309 310 309 308 308 305 307 302 296 293 294 292 292 292 292 291 292 295 297 295 292 289 281 283 284 283 285 291 290 289 285 282 277 274 284 289 292 291 281 291
310 310 309 309 309 308 308 309 309 309 309 308 305 307 303 298 297 296 293 292 295 293 291 292 292 292 294 290 287 285 284 286 281 281 282 284 285 282 282 280 282 289 291 292 279 282 292
310 310 310 308 308 308 308 308 308 309 309 309 305 307 303 298 299 297 297 294 295 294 291 293 291 291 291 287 287 287 285 286 284 286 284 282 281 281 282 279 276 291 290 284 289 293 293
311 311 309 309 308 308 308 307 307 308 309 309 305 307 307 301 299 301 300 301 299 298 295 295 293 291 294 290 290 290 286 286 285 280 289 282 286 284 284 284 291 293 291 295 296 293 294

GFSGBSN_sfc_thetae_024.txt.gz
Theta_e
324 324 324 324 323 321 320 319 319 321 321 322 323 323 324 324 324 324 324 325 326 326 327 328 328 330 321 313 309 321 335 332 319 318 315 315 312 315 309 310 310 306 308 311 312 311 310
322 322 323 323 322 321 320 319 319 320 321 322 323 323 324 324 324 324 324 325 325 326 327 327 328 327 318 305 314 318 315 315 315 316 316 316 313 314 308 309 307 309 309 308 308 308 309
321 321 321 321 321 321 320 320 320 321 321 322 322 323 323 322 323 323 324 324 325 325 326 326 328 319 311 307 316 316 315 314 315 314 314 316 316 312 312 309 313 310 303 305 307 307 308
320 320 319 319 319 319 319 320 320 320 321 321 322 322 321 321 322 322 323 324 324 325 325 327 328 316 306 315 318 313 315 313 315 317 316 320 318 314 311 312 307 303 303 298 307 308 309
319 319 319 318 319 319 320 320 320 320 320 321 321 321 321 320 321 322 323 323 324 325 325 326 316 313 306 318 310 312 314 310 312 315 320 314 316 312 312 304 301 303 295 299 301 307 307
318 318 318 319 319 319 319 319 319 319 320 320 320 320 320 320 321 321 322 322 324 322 320 318 314 306 307 306 310 310 314 312 311 312 311 311 309 305 304 301 293 295 295 296 295 301 303
318 318 318 318 318 319 319 319 319 319 319 319 320 320 319 320 320 321 319 315 313 311 313 306 306 306 308 311 312 309 311 310 310 309 304 310 301 298 300 301 300 298 296 295 299 304 302
318 318 318 318 318 318 318 318 319 319 319 319 319 319 319 319 320 320 317 315 312 315 305 311 309 310 311 312 306 308 312 305 307 302 306 303 299 303 303 303 301 299 297 297 301 305 301
318 318 317 317 317 317 317 318 319 320 320 319 319 319 318 319 319 314 317 315 321 318 308 306 310 309 308 311 306 306 309 307 304 302 303 300 303 305 301 301 299 299 297 297 297 300 301
317 317 317 317 317 317 317 318 319 319 320 319 318 318 317 317 313 319 316 320 323 319 303 302 305 308 310 309 304 310 310 306 305 301 302 301 304 301 301 299 300 295 301 299 298 295 290
318 317 316 316 316 316 316 317 318 319 319 319 317 316 317 313 316 315 317 322 323 316 295 303 305 314 310 306 307 307 311 308 301 301 302 299 301 300 298 299 301 296 302 299 299 295 294
317 317 316 315 315 315 316 317 318 319 319 319 319 319 318 317 319 318 322 321 317 301 292 301 307 305 305 306 306 309 308 311 310 303 303 301 306 303 300 303 303 303 300 298 296 294 288
317 316 315 314 314 314 316 316 316 317 318 318 317 318 318 319 315 321 321 314 301 295 303 300 301 303 302 301 302 303 303 300 296 292 296 300 301 303 304 297 304 300 294 286 286 287 288
317 316 315 314 314 314 314 316 315 316 316 316 315 315 317 313 319 321 317 306 296 299 299 303 301 300 299 300 300 298 299 298 297 295 294 293 292 299 300 297 294 294 293 287 281 283 286
316 316 315 314 313 313 314 315 316 315 315 314 312 318 312 310 318 318 310 299 297 298 298 297 300 297 298 300 296 296 297 298 296 295 289 290 293 299 298 299 298 294 289 292 287 289 285
316 316 315 314 313 313 314 314 314 314 314 313 317 310 307 311 318 314 305 298 296 296 297 297 295 296 294 294 293 293 294 296 295 295 296 292 283 292 297 298 297 294 295 285 285 278 277
315 316 315 314 313 314 314 313 313 313 313 311 315 309 305 311 313 309 300 298 295 296 298 295 294 292 294 291 290 290 292 294 295 294 295 292 287 289 292 291 288 289 287 288 287 284 277
315 315 315 314 313 313 314 314 314 313 311 311 312 302 307 309 302 303 298 298 296 294 296 296 296 294 292 291 289 289 291 294 296 294 288 291 286 281 285 292 293 290 287 287 282 280 281
314 314 315 314 313 313 313 313 313 312 310 309 304 303 309 307 295 293 295 293 295 293 293 294 293 293 292 290 287 290 290 296 296 292 289 290 285 279 284 289 291 289 290 290 287 285 280
314 314 314 313 313 312 312 312 312 312 312 310 304 299 301 301 300 296 293 291 290 295 293 294 293 293 291 289 291 288 289 294 295 292 294 292 285 282 278 282 287 284 286 287 285 279 279
313 313 313 313 313 312 312 312 311 311 311 310 303 296 298 294 293 294 294 292 291 290 293 293 291 291 288 286 288 288 290 291 293 295 292 291 283 285 286 287 286 285 284 285 283 283 279
312 312 313 313 312 312 312 312 311 310 310 306 301 299 299 295 294 294 292 291 291 290 291 290 288 291 290 287 288 286 288 288 288 292 290 291 283 285 283 286 286 283 285 285 285 285 284
312 311 312 312 311 311 312 311 310 309 310 304 304 303 300 291 294 293 292 292 291 291 291 293 291 289 289 291 292 292 292 292 291 289 288 287 285 282 277 284 283 279 284 285 285 286 285
311 311 311 311 311 310 311 311 311 309 308 306 304 304 299 293 294 293 292 292 291 291 290 292 293 290 294 297 295 293 292 291 290 290 291 286 285 284 279 281 272 285 289 289 286 287 288
311 311 310 311 310 310 310 310 310 311 309 306 306 304 299 295 295 292 292 292 292 292 290 291 293 295 296 293 288 287 287 287 289 290 290 289 285 280 276 277 281 284 287 286 284 283 289
311 311 310 309 310 309 310 310 310 311 310 309 305 307 303 297 294 295 292 293 291 291 291 292 295 297 295 290 289 280 282 283 282 284 290 290 288 283 280 274 271 283 289 292 290 278 290
311 311 310 309 309 309 309 309 309 310 311 308 305 307 304 298 298 296 293 293 295 294 291 292 292 291 294 289 286 285 283 287 280 281 281 282 283 279 280 277 281 288 290 291 276 279 289
312 311 310 309 308 308 308 308 308 309 311 308 306 307 302 298 299 297 298 295 294 294 289 292 290 290 289 286 287 287 285 285 283 285 282 281 279 279 280 276 274 291 289 282 286 290 291
313 312 311 310 309 308 308 307 307 308 309 309 303 307 306 300 299 302 301 301 299 299 294 294 292 292 292 289 289 290 285 286 283 279 288 280 284 281 282 281 289 291 289 292 292 291 292

GFSGBSN_sfc_thetae_027.txt.gz
Theta_e
324 323 323 323 323 322 320 318 319 319 320 321 323 323 323 323 324 324 324 325 325 326 327 328 328 329 319 309 304 319 335 329 326 316 313 311 306 305 301 302 303 300 303 307 308 307 306
323 322 322 322 322 321 320 319 319 319 320 320 322 322 323 323 323 323 324 324 325 326 327 327 327 328 314 301 310 317 313 312 314 312 311 311 308 309 303 302 301 303 305 304 305 305 304
319 320 320 320 320 320 319 319 319 319 320 322 322 322 322 322 322 323 324 324 324 325 326 325 327 319 309 303 311 309 312 310 312 313 310 312 311 307 306 302 307 304 300 301 302 303 303
319 319 319 319 319 319 319 319 320 320 320 321 321 321 321 321 321 322 323 324 325 324 325 327 327 312 300 312 310 311 312 310 311 312 314 314 313 309 305 306 304 297 296 291 300 303 305
319 319 319 319 320 320 320 320 320 320 320 320 321 320 320 321 321 321 322 323 324 325 327 327 314 308 300 317 308 308 309 308 309 310 311 314 312 305 304 298 293 295 288 291 294 300 303
319 319 319 319 319 319 319 319 319 319 319 320 320 320 320 320 320 322 322 322 324 323 320 317 314 300 303 303 308 308 306 310 309 308 308 308 303 297 296 294 287 287 287 290 289 296 299
318 318 318 318 318 318 319 319 320 320 320 320 320 320 320 319 320 321 318 310 308 305 308 302 303 303 306 307 309 306 308 307 307 304 296 302 294 290 293 295 295 293 291 291 295 300 297
318 318 318 317 318 318 318 319 319 320 320 320 320 320 319 319 320 319 314 311 308 308 300 309 308 307 310 309 304 305 308 301 301 296 299 295 292 298 302 300 297 295 292 291 296 301 297
318 317 317 317 317 317 317 318 319 320 320 320 319 319 319 319 318 311 312 312 316 313 301 305 308 307 307 309 303 302 306 302 298 296 297 292 298 303 300 298 296 294 292 292 292 297 297
318 317 317 316 316 317 317 317 318 319 319 320 318 318 318 318 311 314 311 316 317 313 294 299 305 306 308 309 303 309 308 304 300 297 297 295 301 300 297 296 296 290 298 297 296 292 285
317 317 316 316 316 316 316 317 318 319 319 319 319 317 317 316 307 310 313 315 314 309 287 302 304 312 307 304 305 306 309 304 298 298 296 294 296 296 296 297 299 294 299 296 295 291 289
317 317 316 315 315 315 316 317 317 318 319 319 318 318 317 314 311 312 316 314 310 295 287 300 306 303 302 304 304 308 306 306 305 300 299 296 301 299 297 300 299 300 297 293 291 289 282
317 316 315 315 315 315 315 315 316 317 318 318 317 317 316 315 309 313 313 307 293 288 300 298 299 301 299 297 299 300 297 293 290 286 288 295 296 300 299 294 298 294 287 281 281 282 282
317 316 315 314 314 314 314 314 315 316 316 316 315 315 314 310 312 313 309 298 288 297 296 302 300 298 296 296 297 295 296 292 293 290 287 285 286 296 295 294 290 289 288 282 277 278 282
317 316 315 314 313 314 314 315 315 315 315 314 313 310 305 302 311 309 302 291 289 292 295 294 296 293 295 298 292 292 292 293 291 290 284 285 288 293 297 296 293 289 284 288 282 284 279
316 316 315 314 313 313 314 315 315 315 315 312 307 301 297 303 309 306 296 293 289 294 295 295 291 292 288 289 288 286 290 293 293 293 291 286 280 289 295 295 293 289 291 282 280 274 273
316 316 315 313 313 314 314 314 314 314 314 312 307 299 298 301 305 300 292 290 292 295 296 293 291 290 290 287 286 285 290 292 294 292 292 286 283 283 287 286 283 284 282 283 282 279 273
315 315 315 314 314 313 314 315 314 314 311 307 301 292 299 299 293 291 288 293 296 294 295 294 293 291 288 288 286 286 289 290 294 292 286 286 282 277 281 288 291 287 283 283 275 276 277
315 315 315 314 314 313 313 314 314 313 310 299 291 291 298 297 285 285 289 292 293 293 292 292 291 291 290 287 283 287 290 295 294 290 286 286 279 273 279 285 288 285 286 286 283 280 274
314 314 314 314 314 313 313 313 313 312 312 302 294 290 292 291 289 287 286 287 288 293 291 292 290 291 288 286 287 285 287 294 293 291 296 290 282 277 273 278 283 281 284 285 281 270 277
313 313 314 313 313 313 313 313 313 312 312 301 293 287 290 284 286 286 286 288 288 288 290 289 288 288 286 282 284 285 288 288 292 295 291 287 280 282 284 285 285 284 283 284 281 281 276
313 312 313 313 312 313 313 312 312 311 310 295 292 289 289 286 287 286 287 284 288 287 287 287 286 289 287 283 285 283 286 284 284 288 286 286 279 282 280 284 284 282 284 284 283 283 283
312 312 312 312 311 311 312 312 311 310 307 295 295 295 291 289 286 285 284 287 289 289 289 291 289 286 286 288 289 288 287 287 286 284 284 283 280 277 272 282 281 276 282 283 283 284 283
312 312 311 312 311 311 311 312 312 311 308 297 296 296 290 285 287 287 290 290 288 288 287 290 289 286 290 292 290 289 286 287 287 286 287 282 281 278 273 277 267 281 287 286 285 286 286
312 312 311 311 311 310 310 310 311 311 310 299 298 296 291 285 288 288 289 288 288 287 287 289 290 290 291 288 284 282 282 283 286 287 286 285 281 274 270 270 278 282 285 284 282 281 287
311 310 311 310 310 310 310 309 310 311 310 301 299 299 294 289 286 291 288 288 285 283 286 289 291 291 290 286 284 274 276 279 279 282 288 286 284 278 275 266 265 279 287 289 287 277 287
312 311 311 310 309 309 309 309 309 311 311 302 298 300 296 289 291 289 287 287 289 286 284 287 288 287 289 283 279 276 277 283 276 277 277 278 277 277 277 270 276 285 288 289 273 277 287
314 313 311 310 310 308 309 309 308 309 311 303 298 301 296 291 293 294 295 289 289 287 284 287 285 285 284 279 278 279 276 281 278 280 279 277 273 273 275 270 271 288 286 279 284 288 288
315 314 313 312 311 310 308 308 308 308 310 309 296 302 301 294 294 299 299 298 295 294 289 288 287 286 287 283 282 279 278 277 278 274 283 277 281 276 278 277 285 287 286 289 289 288 288